Content
SEND FEEDBACK

Daily
Averages
Monthly
Summary
United States of America

POTTS JUNCTION, GUAM


Home > North America > United States > Guam
Elevation: 360 feet     Latitude: 13 33N     Longitude: 144 50E

WEATHER
 
SELECT A DAY
Number of Records: 213,786;   Date Range: 1/1/95 - 10/20/14
 
SHARE

PRINT THIS DATA

[ ← Previous Day ]
WEATHER ALMANAC - JULY 14, 2014
[ Next Day → ]
[ °C ]   °F
Weather ElementAverageHighLow
Temperature83.4 °F87.1 °F (11:54 am)79.3 °F (4:54 am)
Dewpoint76.8 °F78.8 °F (3:04 am)75.2 °F (10:47 am)
Humidity81 %94 % (3:49 am)69 % (11:54 am)
Barometer29.84 in29.87 in (10:26 am)29.80 in (2:54 am)
Wind Speed8 mph13.8 mph (3:54 pm)
Wind Gust19.6 mph (10:54 am)
Weather ElementAverage
Visibility9.7 mi
Wind DirectionESE (98.9 °)

Weather ElementTotal
Precipitation0.41 in
Cooling Degree Days18.2 (Base 65)
Growing Degree Days33.2 (Base 50)
Averaged from 28 records on July 14, 2014
WEATHER CONDITIONS BREAKOUT
WIND DIRECTION BREAKOUT
WEATHER BY HOUR - JULY 14, 2014
[ °C ]   °F
Local TimeTemperatureDewpointHumidityBarometerVisibilityWind DirectionWind SpeedGust SpeedPrecipitationEventsConditions
1:54 AM82.0 °F77.0 °F85 %29.81 in10.0 miENE (70°)4.6 mphPartly Cloudy
2:54 AM82.0 °F78.1 °F88 %29.80 in10.0 miCalmPartly Cloudy
3:04 AM82.4 °F78.8 °F89 %29.83 in2.5 miSE (130°)5.8 mph0.04 inRainHeavy Rain
3:16 AM80.6 °F77.0 °F89 %29.82 in9.0 miESE (110°)4.6 mph0.11 inRainLight Rain
3:49 AM80.6 °F78.8 °F94 %29.82 in10.0 miEast (100°)4.6 mph0.12 inScattered Clouds
3:54 AM81.0 °F78.1 °F91 %29.80 in10.0 miESE (110°)5.8 mph0.12 inPartly Cloudy
4:54 AM79.3 °F77.0 °F93 %29.81 in10.0 miEast (100°)5.8 mphPartly Cloudy
5:54 AM79.3 °F77.0 °F93 %29.82 in10.0 miEast (100°)6.9 mphClear
6:54 AM82.0 °F77.0 °F85 %29.83 in10.0 miESE (110°)6.9 mphPartly Cloudy
7:54 AM82.9 °F75.9 °F79 %29.84 in10.0 miESE (110°)8.1 mphPartly Cloudy
8:54 AM84.0 °F77.0 °F79 %29.85 in10.0 miESE (120°)9.2 mph17.3 mphScattered Clouds
9:54 AM86.0 °F77.0 °F74 %29.86 in10.0 miESE (120°)10.4 mphScattered Clouds
10:26 AM86.0 °F77.0 °F74 %29.87 in10.0 miESE (120°)10.4 mph16.1 mphMostly Cloudy
10:47 AM86.0 °F75.2 °F70 %29.87 in10.0 miESE (110°)12.7 mph18.4 mph0.00 inScattered Clouds
10:54 AM86.0 °F75.9 °F72 %29.85 in10.0 miESE (120°)11.5 mph19.6 mph0.00 inScattered Clouds
11:54 AM87.1 °F75.9 °F69 %29.84 in10.0 miEast (100°)12.7 mphPartly Cloudy
12:54 PM87.1 °F75.9 °F69 %29.83 in10.0 miESE (110°)11.5 mphPartly Cloudy
1:54 PM86.0 °F77.0 °F74 %29.82 in10.0 miESE (120°)10.4 mph17.3 mphMostly Cloudy
2:54 PM87.1 °F75.9 °F69 %29.81 in10.0 miSE (130°)11.5 mphScattered Clouds
3:54 PM84.9 °F77.0 °F77 %29.82 in10.0 miEast (80°)13.8 mph0.02 inMostly Cloudy
4:54 PM84.9 °F77.0 °F77 %29.83 in10.0 miEast (80°)10.4 mphScattered Clouds
5:54 PM84.0 °F77.0 °F79 %29.84 in10.0 miEast (90°)9.2 mphScattered Clouds
6:54 PM82.9 °F77.0 °F82 %29.84 in10.0 miEast (90°)8.1 mphScattered Clouds
7:54 PM82.0 °F77.0 °F85 %29.85 in10.0 miESE (110°)4.6 mphScattered Clouds
8:54 PM82.0 °F75.9 °F82 %29.86 in10.0 miEast (90°)4.6 mphPartly Cloudy
9:54 PM82.0 °F75.9 °F82 %29.86 in10.0 miEast (80°)5.8 mphPartly Cloudy
10:54 PM82.0 °F77.0 °F85 %29.87 in10.0 miEast (80°)5.8 mphScattered Clouds
11:54 PM82.0 °F75.9 °F82 %29.86 in10.0 miEast (80°)6.9 mphPartly Cloudy
Hourly data recorded from PGUM, located miles away from Potts Junction, Guam







STORIES FROM OUR PARTNERS